Flag for United Kingdom Weather past 2 weeks in Truro, England, United Kingdom

Now
48 °F

Partly sunny.


Feels Like: 42 °F
Forecast: 44 / 55 °F
Wind: 18 mph from East

Location: Culdrose


UV Index: 0 (Low)

Visibility: N/A


Pressure: 30.01 "Hg

Humidity: 76%

Dew point: 41 °F

Location of TruroLocation

Historic Weather in Truro

°F

Truro temperature yesterday

Maximum temperature yesterday: 57 °F (at 12:50 PM)
Minimum temperature yesterday: 45 °F (at 11:50 PM)
Average temperature yesterday: 50 °F

Past Weeks' High & Low Weather Summary

 TemperatureHumidityPressure
High57 °F (Apr 11, 1:50 PM)100% (Apr 4, 9:50 PM)30.36 "Hg (Apr 4, 9:50 PM)
Low37 °F (Apr 9, 6:50 AM)51% (Apr 14, 1:50 PM)29.65 "Hg (Apr 7, 9:50 AM)
Average49 °F84%30.12 "Hg
* Reported Apr 4 11:50 AM — Apr 19 11:50 AM, Truro, Weather by CustomWeather, © 2014

Note: Actual official high and low records may vary slightly from our data, if they occured in-between our weather recording intervals... More about our weather records

Advertising

Historic Weather Conditions — Data for Previous 24 hours

 ConditionsComfort  
Time TempWeatherWind HumidityBarometerVisibility
11:50 AM
Apr 19
50 °FScattered clouds.21 mph82%30.01 "HgN/A
10:50 AM52 °FHaze.13 mph72%30.01 "HgN/A
9:50 AM50 °FHaze.13 mph82%30.01 "HgN/A
8:50 AM48 °FHaze.7 mph82%30.04 "HgN/A
7:50 AM45 °FHaze.8 mph81%30.04 "HgN/A
6:50 AM39 °FHaze.8 mph93%30.04 "HgN/A
5:50 AM39 °FHaze.8 mph87%30.04 "HgN/A
4:50 AM39 °FPassing clouds.8 mph87%30.04 "HgN/A
3:50 AM41 °FPassing clouds.7 mph76%30.07 "HgN/A
2:50 AM39 °FPassing clouds.7 mph87%30.07 "HgN/A
1:50 AM41 °FPassing clouds.7 mph81%30.09 "HgN/A
12:50 AM41 °FPassing clouds.6 mph87%30.09 "HgN/A
11:50 PM
Apr 18
45 °FPassing clouds.5 mph81%30.09 "HgN/A
10:50 PM46 °FPartly cloudy.3 mph76%30.12 "HgN/A
9:50 PM48 °FPassing clouds.No wind66%30.12 "HgN/A
8:50 PM48 °FPartly sunny.No wind71%30.09 "HgN/A
7:50 PM50 °FPartly sunny.3 mph62%30.09 "HgN/A
6:50 PM52 °FPartly sunny.5 mph58%30.09 "HgN/A
5:50 PM52 °FPartly sunny.8 mph54%30.12 "HgN/A
4:50 PM52 °FScattered clouds.5 mph72%30.12 "HgN/A
3:50 PM54 °FScattered clouds.5 mph77%30.12 "HgN/A
2:50 PM54 °FScattered clouds.6 mph72%30.12 "HgN/A
1:50 PM57 °FPassing clouds.3 mph55%30.12 "HgN/A
Weather by CustomWeather, © 2014

See weather overview